Track STARLINK-1918 now! 10-day predictions STARLINK-1918 is classified as:
1 46768U 20074AF 21025.25001157 -.00017206 00000-0 -11391-2 0 9990 2 46768 53.0546 88.8472 0001159 101.9369 83.3192 15.06397959 14711